Regional Weather Roundup
Issued by NWS

Home | Current Version | Previous Version | Graphics & Text | Print | Product List | Glossary On
Versions: 1 2 3 4 5 6 7 8 9 10 11 12 13 14 15 16 17 18 19 20 21 22 23 24 25 26 27 28 29 30 31 32 33 34 35 36 37 38 39 40 41 42 43 44 45 46 47 48 49 50
000
ASUS43 KDMX 262303
RWRIA

WEATHER ROUNDUP FOR IOWA
NATIONAL WEATHER SERVICE DES MOINES IA
600 PM CDT TUE JUL 26 2016

NOTE: "FAIR" INDICATES FEW OR NO CLOUDS BELOW 12,000 FEET WITH NO
SIGNIFICANT WEATHER AND/OR OBSTRUCTIONS TO VISIBILITY.

* - THESE STATIONS ARE NOT NWS STATIONS...THUS NOT UNDER NWS
QUALITY CONTROL.  THEY ALSO DO NOT REPORT WEATHER SUCH
AS PRECIPITATION OR FOG.

IAZ001>003-012>014-020>022-031>034-043>046-270000-
   NORTHWEST IOWA

CITY           SKY/WX    TMP DP  RH WIND       PRES   REMARKS
CARROLL *      SUNNY     82  68  61 SE6       30.04S HX  85
CHEROKEE *     SUNNY     85  66  52 SE7       30.02F HX  87
DENISON *      SUNNY     82  66  57 SE5       30.00F HX  85
LE MARS *      SUNNY     86  66  51 S10       30.00F HX  88
SHELDON *      SUNNY     82  72  69 SE6       30.01F HX  87
SIOUX CITY     SUNNY     87  65  47 S12       29.98F HX  89
SPENCER        SUNNY     85  66  53 SE7       30.03F HX  87
STORM LAKE *   SUNNY     82  68  61 SE8       30.04F HX  85
$$

IAZ055>058-069>071-079>083-090>094-270000-
   SOUTHWEST IOWA

CITY           SKY/WX    TMP DP  RH WIND       PRES   REMARKS
ATLANTIC *     PTSUNNY   84  68  58 NE8       30.02S HX  87
CLARINDA *       N/A     86  66  51 MISG      30.03R HX  88
COUNCIL BLFS * SUNNY     84  66  54 SE6       30.02S HX  86
CRESTON *      MOSUNNY   82  66  57 E5        30.04S HX  85
HARLAN  *      SUNNY     84  66  54 E6        30.06F HX  86
LAMONI         SUNNY     84  67  56 VRB6      30.02R HX  86
RED OAK *      MOSUNNY   84  66  54 E3        30.01S HX  86
SHENANDOAH *   SUNNY     84  68  58 NE5       30.01S HX  87
$$

IAZ047>049-059>061-072>074-084-270000-
   CENTRAL IOWA

CITY           SKY/WX    TMP DP  RH WIND       PRES   REMARKS
AMES           SUNNY     84  69  60 E5        30.03S HX  88
ANKENY *         N/A    N/A N/A N/A MISG        N/A
BOONE *        PTSUNNY   82  68  61 NE7       30.04R HX  85
CHARITON *       N/A    N/A N/A N/A MISG        N/A
DES MOINES     MOSUNNY   86  63  45 SE8       30.02R HX  87
GRINNELL*      MOSUNNY   82  63  52 E6        30.05R HX  84
KNOXVILLE *    SUNNY     82  63  51 N3        30.02R HX  83
MARSHALLTOWN   MOSUNNY   84  66  54 NE5       30.03S HX  86
NEWTON *       MOSUNNY   82  66  57 E5        30.03R HX  85
PELLA *        MOSUNNY   81  64  55 E3        30.04R HX  82
PERRY *          N/A     84  67  56 E5        30.03S HX  87
$$

IAZ004>006-015-016-023>025-035-036-270000-
   NORTH CENTRAL IOWA

CITY           SKY/WX    TMP DP  RH WIND       PRES   REMARKS
ALGONA *       SUNNY     84  68  58 CALM      30.05F HX  87
ESTHERVILLE    SUNNY     82  70  66 S9        30.04F HX  86
FORT DODGE *   SUNNY     82  66  57 E5        30.05S HX  85
MASON CITY     SUNNY     84  67  56 S5        30.06F HX  86
FOREST CITY *    N/A     82  64  54 SE5       30.04F HX  84
IOWA FALLS *     N/A     85  64  49 CALM      30.06S HX  86
$$

IAZ007>011-017>019-026>030-037>042-050>054-066-270000-
   NORTHEAST IOWA

CITY           SKY/WX    TMP DP  RH WIND       PRES   REMARKS
CEDAR RAPIDS   MOSUNNY   83  67  58 E7        30.02S HX  85
CHARLES CITY * MOSUNNY   84  68  58 CALM      30.05S HX  87
CLINTON *      SUNNY     84  67  56 NE6       30.03R HX  86
DECORAH *      SUNNY     84  68  58 CALM      30.03S HX  87
DUBUQUE        SUNNY     83  61  47 E3        30.04S HX  83
MONTICELLO *   MOSUNNY   84  66  54 NE3       30.02F HX  86
OELWEIN *      SUNNY     82  66  57 SW3       30.05S HX  85
WATERLOO       SUNNY     84  65  52 NE5       30.02S HX  86
$$

IAZ064-065-067-068-078-270000-
   EAST CENTRAL IOWA

CITY           SKY/WX    TMP DP  RH WIND       PRES   REMARKS
DAVENPORT      SUNNY     84  64  50 E6        30.02R HX  85
IOWA CITY      MOSUNNY   86  65  49 NE7       30.03R HX  88
MT. PLEASANT * SUNNY     85  68  55 NE5       30.01R HX  88
MUSCATINE *    SUNNY     86  63  45 E5        30.01R HX  87
QUAD CITIES    SUNNY     86  64  47 E9        30.00R HX  87
$$

IAZ062-063-075>077-085>089-095>099-270000-
   SOUTHEAST IOWA

CITY           SKY/WX    TMP DP  RH WIND       PRES   REMARKS
BURLINGTON     MOSUNNY   84  67  56 CALM      30.01R HX  86
FAIRFIELD *    SUNNY     82  64  54 E5        30.01S HX  84
KEOKUK *       SUNNY     84  66  54 NE5       30.00R HX  86
CENTERVILLE *    N/A     82  66  57 NE6       30.03S HX  85
OTTUMWA        SUNNY     84  64  50 E7        30.00S HX  85
WASHINGTON *   SUNNY     82  68  61 NE6       30.02S HX  85
$$

ABBREVIATIONS USED IN REMARKS
   TC - TEMPERATURES IN CELSIUS
  WCI - WIND CHILL INDEX
   HX - HEAT INDEX
  VSB - VISIBILITY
$$





USA.gov is the U.S. government's official web portal to all federal, state and local government web resources and services.